Regional Weather Roundup
Issued by NWS Sioux Falls, SD

Home | Current Version | Previous Version | Text Only | Print | Product List | Glossary Off
Versions: 1 2 3 4 5 6 7 8 9 10 11 12 13 14 15 16 17 18 19 20 21 22 23 24 25 26 27 28 29 30 31 32 33 34 35 36 37 38 39 40 41 42 43 44 45 46 47 48 49 50

000
ASUS43 KFSD 211610
RWRFSD

WEATHER ROUNDUP FOR SE SOUTH DAKOTA/SW MINNESOTA/NW IOWA
NATIONAL WEATHER SERVICE SIOUX FALLS SD
1000 AM CST WED FEB 21 2018

NOTE: "FAIR" INDICATES FEW OR NO CLOUDS BELOW 12,000 FEET WITH NO
SIGNIFICANT WEATHER AND OR OBSTRUCTIONS TO VISIBILITY.


SDZ038>040-050-052>070-211700-
SOUTHEAST SOUTH DAKOTA

CITY           SKY/WX    TMP DP  RH WIND       PRES   REMARKS
BROOKINGS      SUNNY      1  -6  72 W5        30.52R WCI  -9
CHAMBERLAIN    SUNNY     -1  -8  72 E5        30.52R WCI -11
HURON          SUNNY      3  -7  63 CALM      30.54S
MADISON        FAIR       1  -2  85 SW6       30.52R WCI -10
MITCHELL       SUNNY      5  -5  63 S6        30.57R WCI  -6
SIOUX FALLS    MOSUNNY    6  -3  66 S7        30.58R WCI  -6
WINNER         FAIR       5  -7  57 SW8       30.46S WCI  -8
YANKTON        SUNNY      4  -2  76 SE6       30.62R WCI  -7
$$

MNZ071-072-080-081-089-090-097-098-211700-
SOUTHWEST MINNESOTA

CITY           SKY/WX    TMP DP  RH WIND       PRES   REMARKS
FAIRMONT       CLOUDY     9   0  67 W8        30.62R WCI  -3
JACKSON        SUNNY      9   0  66 SW7       30.59R WCI  -3
LUVERNE        SUNNY      3  -4  72 S9        30.61R WCI -11
MARSHALL       SUNNY     13   3  64 CALM      30.57R
MONTEVIDEO     SUNNY     10  -2  56 NW3       30.56S
PIPESTONE      SUNNY      1  -6  71 CALM      30.52R
REDWOOD FALLS  SUNNY      3  -4  72 S10       30.60R WCI -12
TRACY          SUNNY      7  -1  67 SW7       30.56R WCI  -4
WORTHINGTON    SUNNY      8  -1  66 S8        30.59R WCI  -4
$$

IAZ001>003-012>014-020>022-031-032-NEZ013-014-SDZ071-211700-
NORTHWEST IOWA

CITY           SKY/WX    TMP DP  RH WIND       PRES   REMARKS
CHEROKEE       SUNNY     10   4  75 CALM      30.63R
DENISON        CLOUDY    12   5  73 CALM      30.66R
ESTHERVILLE    CLOUDY     8   1  73 W9        30.59R WCI  -5
LE MARS        SUNNY      7  -2  66 W5        30.64S WCI  -2
ORANGE CITY    SUNNY      5   1  85 SW3       30.61R
SHELDON        SUNNY      7   1  78 W3        30.59R
SIOUX CITY     SUNNY      9   3  77 CALM      30.65R
SPENCER        FLURRIES   9   1  70 W5        30.61R WCI   1
STORM LAKE     CLOUDY    12   1  62 CALM      30.61R
$$

ABBREVIATIONS USED IN REMARKS
   TC - TEMPERATURE IN CELSIUS
  WCI - WIND CHILL INDEX
   HX - HEAT INDEX
  VSB - VISIBILITY





USA.gov is the U.S. government's official web portal to all federal, state and local government web resources and services.